This is the latest recevied weather packets stored in our database for station/object EW8324. If no packets are shown the sender has not sent any weather packets the latest 10 day(s).
| Time | Temp. | Humidity | Pressure | Rain* | Wind** | Luminosity | Snow |
|---|---|---|---|---|---|---|---|
| 1777838670 | 28.33° C | 39% | 1015.7 hPa | 0.25 mm | - | - | - |
| 1777838370 | 27.78° C | 38% | 1015.8 hPa | 0.51 mm | - | 869 W/m² | - |
| 1777838067 | 27.78° C | 36% | 1015.9 hPa | 0.51 mm | - | 877 W/m² | - |
| 1777837770 | 27.78° C | 35% | 1015.9 hPa | 0.25 mm | - | 890 W/m² | - |
| 1777837466 | 27.78° C | 38% | 1016 hPa | 0.25 mm | - | 895 W/m² | - |
| 1777837170 | 27.78° C | 38% | 1016.1 hPa | 0.25 mm | - | 909 W/m² | - |
| 1777836867 | 27.78° C | 39% | 1016.1 hPa | 0.25 mm | - | 909 W/m² | - |
| 1777836570 | 27.78° C | 37% | 1016.2 hPa | 0.25 mm | - | - | - |
| 1777836266 | 27.78° C | 39% | 1016.3 hPa | 0.25 mm | - | 927 W/m² | - |
| 1777836030 | 28.33° C | 36% | 1016.3 hPa | 0.25 mm | - | 480 W/m² | - |
| 1777835666 | 28.33° C | 39% | 1016.4 hPa | 0.51 mm | - | 920 W/m² | - |
| 1777835434 | 28.33° C | 39% | 1016.5 hPa | 0.51 mm | - | 909 W/m² | - |
| 1777835066 | 28.33° C | 39% | 1016.5 hPa | 0.51 mm | - | 921 W/m² | - |
| 1777834772 | 27.78° C | 38% | 1016.5 hPa | 0.25 mm | - | 798 W/m² | - |
| 1777834467 | 27.78° C | 35% | 1016.5 hPa | 0.25 mm | - | 932 W/m² | - |
| 1777834170 | 27.78° C | 35% | 1016.7 hPa | 0.25 mm | - | 934 W/m² | - |
| 1777833867 | 27.78° C | 39% | 1016.7 hPa | 0.25 mm | - | 935 W/m² | - |
| 1777833570 | 27.78° C | 37% | 1016.8 hPa | 0.25 mm | - | 934 W/m² | - |
| 1777833324 | 28.33° C | 37% | 1016.8 hPa | 0.25 mm | - | - | - |
| 1777832667 | 27.78° C | 41% | 1017 hPa | 0.51 mm | - | 927 W/m² | - |
| 1777832065 | 27.78° C | 40% | 1017.2 hPa | 0.25 mm | - | - | - |
| 1777831773 | 27.22° C | 39% | 1017.2 hPa | 0.25 mm | - | 932 W/m² | - |
| 1777831464 | 27.22° C | 40% | 1017.4 hPa | 0.25 mm | - | 930 W/m² | - |
| 1777831170 | 27.78° C | 38% | 1017.4 hPa | 0.25 mm | - | 930 W/m² | - |
| 1777830865 | 27.78° C | 41% | 1017.4 hPa | 0.51 mm | - | 921 W/m² | - |
* Rain latest hour (hover to see other rain measurements)
** Current wind speed in m/s (hover to see current wind gust speed)